Tracking 25710 objects as of 5-Jul-2022
HD Live streaming from Space Station
objects crossing your sky now

FENGYUN 1C DEB

Track FENGYUN 1C DEB now!
10-day predictions


NORAD ID: 31024
Int'l Code: 1999-025BDS
Perigee: 781.6 km
Apogee: 894.8 km
Inclination: 99.2 °
Period: 101.5 minutes
Semi major axis: 7209 km
RCS: 0.01 m2 (small)
Launch date: May 10, 1999
Source: People's Republic of China (PRC)
Launch site: Taiyaun Space Center, China (TSC)

Note: This is SATELLITE DEBRIS
aabbcc
Your satellite tracking list
Your tracking list is empty




NASA's NSSDC Master Catalog

Two Line Element Set (TLE):
1 31024U 99025BDS 22185.06706703  .00000151  00000-0  93161-4 0  9993
2 31024  99.1642  49.9332 0078507 103.8779 257.1144 14.18311570788621
Source of the keplerian elements: AFSPC